Regional Weather Roundup
Issued by NWS Albany, NY

Home | Current Version | Previous Version | Text Only | Print | Product List | Glossary On
Versions: 1 2 3 4 5 6 7 8 9 10 11 12 13 14 15 16 17 18 19 20 21 22 23 24 25 26 27 28 29 30 31 32 33 34 35 36 37 38 39 40 41 42 43 44 45 46 47 48 49 50
000
ASUS41 KALY 060310
RWRALY

NEW YORK STATE HOURLY WEATHER ROUNDUP
NATIONAL WEATHER SERVICE ALBANY NY
1100 PM EDT SUN JUL 05 2015

NOTE: "FAIR" INDICATES FEW OR NO CLOUDS BELOW 12,000 FEET WITH NO
SIGNIFICANT WEATHER AND/OR NO OBSTRUCTIONS TO VISIBILITY.

NYZ032-033-038>043-046>054-057>066-NYZ062>081-060400-
EAST


CITY           SKY/WX    TMP DP  RH WIND       PRES   REMARKS
ALBANY         PTCLDY    69  59  70 CALM      30.14R
GLENS FALLS    PTCLDY    65  62  90 CALM      30.13R
POUGHKEEPSIE   PTCLDY    67  63  87 SE3       30.13R
NEWBURGH       CLEAR     70  64  83 W6        30.16R
MONTGOMERY     PTCLDY    66  63  90 CALM      30.14R
WHITE PLAINS   PTCLDY    68  64  87 CALM      30.15R
ISLIP          MOCLDY    70  63  78 SW7       30.14R
NEW YORK CITY  MOCLDY    75  64  68 S6        30.13S
CENTRAL PARK   PTCLDY    75  64  68 CALM      30.17R
$$

NYZ005>009-017-018-044>046-055-056-060400-
CENTRAL


CITY           SKY/WX    TMP DP  RH WIND       PRES   REMARKS
FULTON         CLEAR     59  57  93 CALM      30.14R
SYRACUSE       CLEAR     66  60  81 E3        30.14R
ROME           CLEAR     61  58  90 NE5       30.17R
ELMIRA         PTCLDY    63  61  93 CALM      30.16R
BINGHAMTON     PTCLDY    68  52  56 CALM      30.19R
MONTICELLO     PTCLDY    63  59  88 N5        30.20S
$$

NYZ026>034-041>043-060400-
NORTH


CITY           SKY/WX    TMP DP  RH WIND       PRES   REMARKS
WATERTOWN      CLEAR     60  56  86 CALM      30.13S
FORT DRUM      NOT AVBL
MASSENA        CLEAR     66  61  84 SW3       30.13R
SARANAC LAKE   CLEAR     54  52  93 CALM      30.17R
PLATTSBURGH    CLEAR     63  62  97 CALM      30.11S FOG
$$

NYZ001>004-010>016-019>021-060400-
WEST


CITY           SKY/WX    TMP DP  RH WIND       PRES   REMARKS
NIAGARA FALLS  MOCLDY    68  58  70 CALM      30.11S
BUFFALO        MOCLDY    71  56  58 SE3       30.13R
DUNKIRK        PTCLDY    63  61  93 SE3       30.12S
JAMESTOWN      MOCLDY    68  59  73 NE5       30.17S
WELLSVILLE     MOCLDY    65  57  75 E3        30.21R
ROCHESTER      PTCLDY    71  60  68 CALM      30.13S
PENN YAN       PTCLDY    64  60  87 CALM      30.16S
$$

             KEY
       WCI = WIND CHILL INDEX
       VSB = VISIBILITY
       HX  = HEAT INDEX
$$



USA.gov is the U.S. government's official web portal to all federal, state and local government web resources and services.